Regional Weather Roundup
Issued by NWS

Home | Current Version | Previous Version | Graphics & Text | Print | Product List | Glossary On
Versions: 1 2 3 4 5 6 7 8 9 10 11 12 13 14 15 16 17 18 19 20 21 22 23 24 25 26 27 28 29 30 31 32 33 34 35 36 37 38 39 40 41 42 43 44 45 46 47 48 49 50
913
ASUS43 KOAX 161402
RWRNE

WEATHER ROUNDUP FOR NEBRASKA
NATIONAL WEATHER SERVICE OMAHA NE
900 AM CDT MON OCT 16 2017

NOTES: SATELLITE DATA IS BEING USED TO AUGMENT CLOUD COVER ABOVE
       12000 FEET.
       "FAIR" INDICATES FEW OR NO CLOUDS BELOW 12,000 FEET WITH NO
       SIGNIFICANT WEATHER AND/OR OBSTRUCTIONS TO VISIBILITY.


NEZ001>004-019>022-054>056-161500-
NEBRASKA PANHANDLE

CITY           SKY/WX    TMP DP  RH WIND       PRES   REMARKS
SCOTTSBLUFF    CLOUDY    31  26  82 CALM      30.24S
ALLIANCE       CLOUDY    32  26  78 W5        30.22S WCI  27
CHADRON        CLOUDY    30  25  81 CALM      30.19R
GORDON         FAIR      39  29  65 SW3       30.18S
KIMBALL        CLOUDY    42  26  52 W8        30.28R
SIDNEY         CLOUDY    38  27  64 W7        30.26S HAZE    WCI  33
$$

NEZ057>060-069>072-079>082-161500-
SOUTHWEST NEBRASKA

CITY           SKY/WX    TMP DP  RH WIND       PRES   REMARKS
NORTH PLATTE   SUNNY     34  31  88 CALM      30.26F
IMPERIAL       SUNNY     38  30  73 SW6       30.27F WCI  33
LEXINGTON      SUNNY     37  33  87 CALM      30.28S
MCCOOK         CLOUDY    34  31  88 CALM      30.29F
OGALLALA       CLOUDY    35  32  86 W6        30.26F WCI  30
$$

NEZ005>010-023>029-035>040-094-161500-
NORTH CENTRAL NEBRASKA

CITY           SKY/WX    TMP DP  RH WIND       PRES   REMARKS
VALENTINE      SUNNY     40  32  73 W5        30.17F
AINSWORTH      SUNNY     45  31  60 SW13      30.18F
BROKEN BOW     SUNNY     40  34  79 CALM      30.25F
O`NEILL        SUNNY     44  36  73 S7        30.23F
ORD            SUNNY     36  32  85 CALM      30.25F
THEDFORD       SUNNY     45  30  55 CALM      30.22S
$$

NEZ041-046>049-061>064-073>077-083>087-161500-
SOUTH CENTRAL NEBRASKA

CITY           SKY/WX    TMP DP  RH WIND       PRES   REMARKS
GRAND ISLAND   SUNNY     45  39  79 S7        30.30S
AURORA         SUNNY     47  35  63 S7        30.30S
HASTINGS       SUNNY     45  32  60 SW7       30.31S
HEBRON         SUNNY     42  38  87 SW3       30.35R
HOLDREGE       SUNNY     44  32  61 S6        30.30S
KEARNEY        SUNNY     41  35  79 S5        30.30S
YORK           SUNNY     41  37  87 CALM      30.32R
$$

NEZ011>018-030>034-042>045-161500-
NORTHEAST NEBRASKA

CITY           SKY/WX    TMP DP  RH WIND       PRES   REMARKS
NORFOLK        SUNNY     46  35  65 S8        30.28S
ALBION         SUNNY     35  33  92 CALM      30.28S
BLAIR          SUNNY     43  37  82 S5        30.32S
COLUMBUS       SUNNY     40  37  89 CALM      30.31F
FREMONT        SUNNY     42  40  93 CALM      30.32S
TEKAMAH        SUNNY     41  37  86 S3        30.32S
WAYNE          SUNNY     39  37  91 S5        30.28F
$$

NEZ050>053-065>068-078-088>093-161500-
SOUTHEAST NEBRASKA

CITY           SKY/WX    TMP DP  RH WIND       PRES   REMARKS
LINCOLN        SUNNY     41  37  86 SE3       30.35S
OMAHA EPPLEY   SUNNY     44  38  79 S7        30.34S
BEATRICE       SUNNY     44  39  82 CALM      30.35R
FALLS CITY     SUNNY     41  39  93 CALM      30.37R
NEBRASKA CITY  MOSUNNY   45  41  84 S3        30.36R
PLATTSMOUTH    MOSUNNY   46  38  74 S6        30.34S
$$

NEZ044-045-051>053-067-161500-
OMAHA AREA

CITY           SKY/WX    TMP DP  RH WIND       PRES   REMARKS
OMAHA EPPLEY   SUNNY     44  38  79 S7        30.34S
BLAIR          SUNNY     43  37  82 S5        30.32S
FREMONT        SUNNY     42  40  93 CALM      30.32S
MILLARD        SUNNY     41  39  93 SE5       30.33F
OFFUTT AFB     SUNNY     39  38  97 E5        30.34S
PLATTSMOUTH    MOSUNNY   46  38  74 S6        30.34S
WAHOO          FAIR      41  38  89 CALM      30.33S
$$




USA.gov is the U.S. government's official web portal to all federal, state and local government web resources and services.